HORS 4 (RS82S)

Last updated on Mon Sep 21 2026 00:03:15 GMT+0000 (Coordinated Universal Time)

1 61754U 24199V 26263.60322374 .00064657 00000+0 53133-3 0 9999 2 61754 97.2724 143.7601 0001292 245.7857 114.3271 15.70242375152564
UTC large
Height (km)
Speed (km/s)
/
Latitude / Longitude
Inclination (degrees)
Orbital Period (minutes)
Azimuth
Elevation
Range (km)
Doppler Factor

Next 0 passes for location: London (51.5072 / 0.1276)

No passes found over London.
HORS 4 (RS82S)